User: anonymous   Login
Location: Noordwijk
(52.2400°N, 4.4500°E)
Time: 13:27:10
(UTC+00:00)
Language:

FO-29 - Orbit

View from above orbital plane
View from above orbital plane
View from above satellite
View from above satellite

Ground track
Ground track

The orbit data is extracted from the following two-line orbital elements,

1 24278U 96046B   22341.90248042 -.00000025  00000-0  10418-4 0  9995
2 24278  98.5137 341.7036 0350057 193.0446 166.1459 13.53125302299310
Epoch (UTC): 07 December 2022 21:39:34
Eccentricity: 0.0350057
inclination: 98.5137°
perigee height: 800 km
apogee height: 1321 km
right ascension of ascending node: 341.7036°
argument of perigee: 193.0446°
revolutions per day: 13.53125302
mean anomaly at epoch: 166.1459°
orbit number at epoch: 29931

The dashed part of the orbit path shows where the satellite is in the earth's shadow,  

DLR